リニア彗星

230P/LINEAR (2009)

English version
Home page
Updated on July 21, 2011

---------------------------------------------------------------------

・ プロフィール

符号 230P/2009 U6
発見日 2009年10月27日
発見光度 18.2等
発見者 Lincoln Laboratory Near-Earth Asteroid Research project

・ 写真集

・ 軌道要素

Epoch 2009 July 28.0 TT = JDT 2455040.5
T 2009 Aug. 8.82330 TT                                  MPC
q   1.4859733            (2000.0)            P               Q
n   0.15728510     Peri.  308.72702     +0.45779119     -0.85783867
a   3.3989465      Node   112.50918     +0.87382239     +0.38572033
e   0.5628136      Incl.   14.64306     +0.16389527     +0.33960661
P   6.27

・ 星図

・ 光度変化

        m1 = 13.2 + 5 logΔ + 10.0 log r

---------------------------------------------------------------------

軌道要素はM.P.E.C. 2009-X47に掲載されたものです。
星図はステラナビゲータ Ver.8 (アストロアーツ) で作成したものです。
光度グラフはComet for Windowsで作成したものです。

---------------------------------------------------------------------

Copyright(C) Seiichi Yoshida (comet@aerith.net). All rights reserved.